period_start,C,m1,H,J0,J1,J2,J3,J4,J5,JA,JB,JC,JD,JJ,JK,JN,#
2014-02-24 00:00:57,0.43,6.83,0.00,17.67,23.50,26.53,6.38,31.92,1027.85,2050.95,1690.22,1904.99,2067.07,350.00,333.69,22.02,0000 0000 0000 0000 000000
2014-02-24 00:01:58,0.26,6.83,0.00,17.69,23.50,26.57,6.16,31.83,1027.85,2050.97,1689.93,1904.55,2066.78,350.55,334.05,22.03,0000 0000 0000 0000 000000
2014-02-24 00:02:58,0.49,6.84,0.00,17.68,23.49,26.61,6.46,32.08,1027.85,2050.97,1689.41,1904.20,2066.31,350.39,333.91,22.04,0000 0000 0000 0000 000000
2014-02-24 00:03:58,0.48,6.84,0.00,17.67,23.50,26.63,6.33,32.21,1027.83,2050.98,1689.15,1904.07,2066.11,350.93,334.44,22.04,0000 0000 0000 0000 000000
2014-02-24 00:04:58,0.23,6.84,0.00,17.68,23.49,26.59,6.40,32.25,1027.85,2050.97,1688.86,1903.89,2065.91,350.67,334.06,22.05,0000 0000 0000 0000 000000
2014-02-24 00:05:58,0.32,6.84,0.00,17.68,23.49,26.63,6.20,32.21,1027.85,2050.97,1688.36,1903.40,2065.39,350.87,334.37,22.05,0000 0000 0000 0000 000000
2014-02-24 00:06:59,0.52,6.85,0.00,17.68,23.48,26.61,6.35,32.00,1027.85,2050.95,1688.12,1903.15,2065.14,350.40,333.93,22.06,0000 0000 0000 0000 000000
2014-02-24 00:07:59,0.27,6.85,0.00,17.67,23.48,26.58,6.00,31.88,1027.85,2050.93,1687.75,1903.03,2065.01,349.20,332.79,22.07,0000 0000 0000 0000 000000
2014-02-24 00:08:59,0.29,6.85,0.00,17.67,23.48,26.60,6.36,31.96,1027.85,2050.96,1687.28,1902.68,2064.61,350.85,334.43,22.07,0000 0000 0000 0000 000000
2014-02-24 00:09:59,0.52,6.85,0.00,17.67,23.47,26.61,6.34,32.25,1027.85,2050.98,1687.06,1902.26,2064.22,350.04,333.58,22.08,0000 0000 0000 0000 000000
2014-02-24 00:10:59,0.38,6.85,0.00,17.67,23.47,26.59,6.23,31.83,1027.85,2050.98,1686.61,1902.10,2064.07,350.25,333.69,22.08,0000 0000 0000 0000 000000
2014-02-24 00:11:59,0.34,6.86,0.00,17.68,23.47,26.63,6.13,31.79,1027.85,2050.98,1686.24,1902.01,2063.85,349.72,333.28,22.09,0000 0000 0000 0000 000000
2014-02-24 00:13:00,0.25,6.86,0.00,17.68,23.47,26.61,6.39,32.00,1027.85,2050.98,1686.10,1901.69,2063.36,351.10,334.38,22.10,0000 0000 0000 0000 000000
2014-02-24 00:14:00,0.36,6.86,0.00,17.69,23.47,26.60,6.33,31.88,1027.85,2050.99,1686.02,1901.27,2063.13,350.19,333.73,22.10,0000 0000 0000 0000 000000
2014-02-24 00:15:00,0.28,6.86,0.00,17.69,23.47,26.56,6.12,32.04,1027.85,2050.99,1685.61,1901.10,2062.86,349.07,332.84,22.11,0000 0000 0000 0000 000000
2014-02-24 00:16:00,0.38,6.86,0.00,17.68,23.47,26.58,6.25,32.08,1027.85,2050.97,1685.22,1900.90,2062.38,350.50,334.07,22.11,0000 0000 0000 0000 000000
2014-02-24 00:17:01,0.37,6.87,0.00,17.67,23.47,26.60,6.26,31.96,1027.85,2050.98,1684.92,1900.39,2062.13,349.44,333.38,22.12,0000 0000 0000 0000 000000
2014-02-24 00:18:01,0.44,6.87,0.00,17.67,23.47,26.58,6.18,31.92,1027.85,2050.98,1684.39,1900.14,2062.01,350.06,333.24,22.12,0000 0000 0000 0000 000000
2014-02-24 00:19:01,0.37,6.87,0.00,17.67,23.47,26.57,6.13,32.00,1027.85,2050.96,1684.12,1900.02,2061.56,349.93,333.28,22.13,0000 0000 0000 0000 000000
2014-02-24 00:20:01,0.29,6.87,0.00,17.69,23.47,26.58,6.28,31.75,1027.85,2050.96,1683.70,1899.64,2061.20,349.67,332.99,22.14,0000 0000 0000 0000 000000
2014-02-24 00:21:01,0.47,6.88,0.00,17.69,23.47,26.58,6.20,31.92,1027.85,2050.95,1683.26,1899.26,2061.05,350.06,333.58,22.14,0000 0000 0000 0000 000000
2014-02-24 00:22:02,0.38,6.88,0.00,17.69,23.47,26.57,6.28,31.83,1027.86,2050.96,1683.05,1899.07,2060.66,350.18,333.69,22.15,0000 0000 0000 0000 000000
2014-02-24 00:23:02,0.31,6.88,0.00,17.69,23.47,26.55,6.13,31.96,1027.85,2050.97,1682.56,1898.85,2060.27,350.55,334.05,22.15,0000 0000 0000 0000 000000
2014-02-24 00:24:02,0.46,6.88,0.00,17.69,23.47,26.56,6.16,31.83,1027.87,2050.95,1682.21,1898.40,2060.09,349.53,333.20,22.16,0000 0000 0000 0000 000000
2014-02-24 00:25:02,0.38,6.88,0.00,17.69,23.47,26.56,6.36,31.96,1027.86,2050.96,1682.03,1898.16,2059.83,349.58,333.12,22.17,0000 0000 0000 0000 000000
2014-02-24 00:26:03,0.27,6.89,0.00,17.69,23.47,26.56,6.29,31.96,1027.86,2050.94,1681.58,1898.03,2059.35,350.33,333.83,22.17,0000 0000 0000 0000 000000
2014-02-24 00:27:03,0.38,6.89,0.00,17.69,23.47,26.58,6.24,31.96,1027.85,2050.95,1681.22,1897.76,2059.13,349.90,333.43,22.18,0000 0000 0000 0000 000000
2014-02-24 00:28:03,0.36,6.89,0.00,17.70,23.47,26.60,6.21,31.96,1027.86,2050.97,1681.08,1897.31,2059.01,350.62,333.88,22.18,0000 0000 0000 0000 000000
2014-02-24 00:29:03,0.32,6.89,0.00,17.70,23.47,26.61,6.26,32.13,1027.85,2050.98,1680.88,1897.11,2058.57,350.00,333.52,22.19,0000 0000 0000 0000 000000
2014-02-24 00:30:04,0.33,6.89,0.00,17.70,23.47,26.65,6.32,32.00,1027.87,2050.99,1680.39,1896.99,2058.22,350.20,333.72,22.19,0000 0000 0000 0000 000000
2014-02-24 00:31:04,0.37,6.90,0.00,17.70,23.47,26.61,6.34,32.08,1027.88,2050.98,1680.14,1896.62,2058.03,350.80,334.28,22.20,0000 0000 0000 0000 000000
2014-02-24 00:32:04,0.35,6.90,0.00,17.71,23.47,26.62,6.23,32.08,1027.86,2050.98,1679.87,1896.24,2057.55,350.16,333.66,22.21,0000 0000 0000 0000 000000
2014-02-24 00:33:04,0.45,6.90,0.00,17.69,23.47,26.56,6.30,32.04,1027.85,2050.97,1679.35,1896.08,2057.20,350.20,333.57,22.21,0000 0000 0000 0000 000000
2014-02-24 00:34:05,0.36,6.90,0.00,17.70,23.47,26.55,6.38,32.13,1027.86,2050.95,1679.09,1895.93,2057.07,350.33,333.83,22.22,0000 0000 0000 0000 000000
2014-02-24 00:35:05,0.21,6.90,0.00,17.71,23.47,26.57,6.27,32.04,1027.86,2050.94,1678.75,1895.46,2056.77,349.57,333.10,22.22,0000 0000 0000 0000 000000
2014-02-24 00:36:05,0.50,6.91,0.00,17.71,23.47,26.56,6.14,32.00,1027.85,2050.96,1678.31,1895.17,2056.30,349.72,333.44,22.23,0000 0000 0000 0000 000000
2014-02-24 00:37:06,0.42,6.91,0.00,17.72,23.46,26.56,6.33,32.00,1027.86,2050.98,1678.10,1895.05,2056.11,350.29,333.68,22.24,0000 0000 0000 0000 000000
2014-02-24 00:38:06,0.23,6.91,0.00,17.72,23.46,26.56,6.20,31.83,1027.86,2050.99,1677.72,1894.79,2055.98,349.77,333.77,22.24,0000 0000 0000 0000 000000
2014-02-24 00:39:06,0.37,6.91,0.00,17.73,23.46,26.59,6.33,31.92,1027.86,2050.97,1677.26,1894.32,2055.49,350.54,334.00,22.25,0000 0000 0000 0000 000000
2014-02-24 00:40:06,0.54,6.92,0.00,17.72,23.46,26.53,6.13,32.13,1027.86,2050.96,1677.01,1894.10,2055.18,350.13,333.62,22.25,0000 0000 0000 0000 000000
2014-02-24 00:41:06,0.24,6.92,0.00,17.72,23.46,26.56,6.22,32.00,1027.85,2050.95,1676.50,1893.98,2055.05,350.39,333.86,22.26,0000 0000 0000 0000 000000
2014-02-24 00:42:07,0.31,6.92,0.00,17.72,23.46,26.58,6.38,31.96,1027.86,2050.97,1676.19,1893.60,2054.72,349.85,333.90,22.26,0000 0000 0000 0000 000000
2014-02-24 00:43:07,0.49,6.92,0.00,17.73,23.46,26.55,6.29,31.96,1027.86,2050.99,1676.05,1893.24,2054.28,349.84,333.60,22.27,0000 0000 0000 0000 000000
2014-02-24 00:44:07,0.33,6.93,0.00,17.74,23.46,26.55,6.49,31.92,1027.85,2050.99,1675.63,1893.08,2054.09,350.45,333.66,22.28,0000 0000 0000 0000 000000
2014-02-24 00:45:07,0.34,6.93,0.00,17.74,23.46,26.55,6.33,32.13,1027.85,2050.99,1675.23,1892.95,2053.84,350.31,334.17,22.28,0000 0000 0000 0000 000000
2014-02-24 00:46:07,0.28,6.93,0.00,17.73,23.46,26.55,6.22,32.04,1027.85,2050.98,1675.07,1892.51,2053.38,350.22,333.68,22.29,0000 0000 0000 0000 000000
2014-02-24 00:47:08,0.42,6.93,0.00,17.74,23.46,26.54,6.31,32.00,1027.85,2050.99,1674.61,1892.19,2053.14,349.90,333.39,22.29,0000 0000 0000 0000 000000
2014-02-24 00:48:08,0.45,6.93,0.00,17.74,23.46,26.55,6.43,32.17,1027.87,2050.99,1674.23,1892.06,2052.97,350.37,333.96,22.30,0000 0000 0000 0000 000000
2014-02-24 00:49:08,0.24,6.94,0.00,17.74,23.46,26.55,6.35,32.17,1027.87,2050.97,1673.90,1891.67,2052.51,350.94,334.37,22.31,0000 0000 0000 0000 000000
2014-02-24 00:50:08,0.50,6.94,0.00,17.74,23.46,26.55,6.44,32.17,1027.88,2050.99,1673.39,1891.26,2052.19,350.88,334.32,22.31,0000 0000 0000 0000 000000
2014-02-24 00:51:08,0.52,6.94,0.00,17.74,23.46,26.57,6.26,32.25,1027.88,2050.99,1673.13,1891.09,2052.06,350.10,333.51,22.32,0000 0000 0000 0000 000000
2014-02-24 00:52:09,0.20,6.94,0.00,17.74,23.46,26.61,5.99,32.21,1027.87,2050.98,1672.75,1890.91,2051.69,349.04,332.56,22.32,0000 0000 0000 0000 000000
2014-02-24 00:53:09,0.37,6.94,0.00,17.74,23.46,26.60,6.22,32.17,1027.90,2050.99,1672.30,1890.44,2051.28,350.69,334.14,22.33,0000 0000 0000 0000 000000
2014-02-24 00:54:09,0.58,6.95,0.00,17.74,23.46,26.57,6.35,32.08,1027.89,2050.99,1672.10,1890.17,2051.10,350.18,333.64,22.34,0000 0000 0000 0000 000000
2014-02-24 00:55:09,0.24,6.95,0.00,17.75,23.46,26.57,6.24,32.17,1027.88,2050.98,1672.03,1890.05,2050.87,350.49,333.99,22.34,0000 0000 0000 0000 000000
2014-02-24 00:56:10,0.12,6.95,0.00,17.75,23.47,26.57,6.02,32.13,1027.88,2050.99,1671.90,1889.93,2050.41,348.81,332.33,22.35,0000 0000 0000 0000 000000
2014-02-24 00:57:10,0.22,6.95,0.00,17.77,23.47,26.59,6.17,32.04,1027.87,2050.99,1671.44,1889.50,2050.15,349.69,333.54,22.35,0000 0000 0000 0000 000000
2014-02-24 00:58:10,0.54,6.95,0.00,17.78,23.47,26.56,6.11,31.96,1027.88,2050.98,1671.16,1889.19,2049.92,349.51,332.96,22.36,0000 0000 0000 0000 000000
2014-02-24 00:59:10,0.31,6.96,0.00,17.78,23.47,26.57,6.15,32.00,1027.88,2050.98,1670.84,1889.06,2049.44,349.46,332.98,22.36,0000 0000 0000 0000 000000
2014-02-24 01:00:11,0.37,6.96,0.00,17.79,23.47,26.55,6.16,31.96,1027.89,2050.98,1670.34,1888.73,2049.16,349.76,333.11,22.37,0000 0000 0000 0000 000000
2014-02-24 01:01:11,0.47,6.96,0.00,17.79,23.47,26.52,6.20,31.96,1027.85,2050.99,1670.12,1888.31,2049.01,350.07,333.51,22.38,0000 0000 0000 0000 000000
2014-02-24 01:02:11,0.32,6.96,0.00,17.79,23.47,26.56,6.19,32.04,1027.88,2050.98,1669.63,1888.11,2048.50,348.59,332.48,22.38,0000 0000 0000 0000 000000
2014-02-24 01:03:12,0.47,6.97,0.00,17.79,23.47,26.57,6.39,32.21,1027.86,2050.99,1669.22,1887.94,2048.17,350.32,333.71,22.39,0000 0000 0000 0000 000000
2014-02-24 01:04:12,0.34,6.97,0.00,17.79,23.47,26.58,6.19,31.92,1027.86,2050.98,1668.88,1887.49,2047.96,349.50,332.98,22.39,0000 0000 0000 0000 000000
2014-02-24 01:05:12,0.42,6.97,0.00,17.79,23.47,26.60,6.15,31.96,1027.87,2050.98,1668.34,1887.18,2047.47,350.19,333.21,22.40,0000 0000 0000 0000 000000
2014-02-24 01:06:12,0.56,6.97,0.00,17.79,23.47,26.54,6.31,32.17,1027.85,2050.98,1668.11,1887.02,2047.18,350.64,333.87,22.41,0000 0000 0000 0000 000000
2014-02-24 01:07:12,0.23,6.98,0.00,17.79,23.47,26.57,6.30,32.08,1027.85,2050.98,1667.64,1886.55,2047.06,349.90,333.44,22.41,0000 0000 0000 0000 000000
2014-02-24 01:08:12,0.51,6.98,0.00,17.79,23.47,26.54,6.32,32.17,1027.85,2050.98,1667.23,1886.20,2047.00,349.75,333.17,22.42,0000 0000 0000 0000 000000
2014-02-24 01:09:13,0.35,6.98,0.00,17.80,23.47,26.54,6.08,32.13,1027.85,2050.99,1667.02,1886.06,2046.72,349.36,332.79,22.42,0000 0000 0000 0000 000000
2014-02-24 01:10:13,0.24,6.98,0.00,17.81,23.47,26.56,6.25,32.13,1027.86,2050.98,1666.57,1885.83,2046.29,350.30,333.86,22.43,0000 0000 0000 0000 000000
2014-02-24 01:11:13,0.44,6.98,0.00,17.81,23.47,26.52,6.17,32.13,1027.86,2050.98,1666.21,1885.37,2046.10,350.38,333.75,22.43,0000 0000 0000 0000 000000
2014-02-24 01:12:13,0.44,6.99,0.00,17.82,23.47,26.55,6.16,32.21,1027.85,2050.98,1665.99,1885.13,2045.94,349.92,333.31,22.44,0000 0000 0000 0000 000000
2014-02-24 01:13:14,0.21,6.99,0.00,17.83,23.47,26.54,6.10,32.00,1027.85,2050.99,1665.45,1885.03,2045.48,349.86,333.23,22.45,0000 0000 0000 0000 000000
2014-02-24 01:14:14,0.46,6.99,0.00,17.83,23.47,26.55,6.28,32.13,1027.85,2050.98,1665.16,1884.60,2045.18,350.60,333.94,22.45,0000 0000 0000 0000 000000
2014-02-24 01:15:14,0.42,6.99,0.00,17.84,23.47,26.51,6.17,32.08,1027.85,2050.99,1664.85,1884.24,2045.01,349.34,332.66,22.46,0000 0000 0000 0000 000000
2014-02-24 01:16:14,0.35,7.00,0.00,17.84,23.47,26.52,6.19,31.92,1027.85,2050.97,1664.36,1884.08,2044.51,349.22,332.48,22.46,0000 0000 0000 0000 000000
2014-02-24 01:17:15,0.45,7.00,0.00,17.84,23.47,26.51,6.37,32.08,1027.85,2050.97,1664.13,1883.86,2044.18,350.52,333.85,22.47,0000 0000 0000 0000 000000
2014-02-24 01:18:15,0.29,7.00,0.00,17.84,23.47,26.55,6.25,32.04,1027.85,2050.97,1663.80,1883.39,2044.04,350.49,333.82,22.48,0000 0000 0000 0000 000000
2014-02-24 01:19:15,0.44,7.00,0.00,17.84,23.47,26.53,6.45,32.13,1027.85,2050.98,1663.32,1883.14,2043.70,351.17,333.90,22.48,0000 0000 0000 0000 000000
2014-02-24 01:20:15,0.43,7.01,0.00,17.84,23.47,26.48,6.38,31.96,1027.85,2050.98,1663.11,1883.05,2043.30,350.86,334.16,22.49,0000 0000 0000 0000 000000
2014-02-24 01:21:16,0.25,7.01,0.00,17.85,23.47,26.56,6.27,32.04,1027.85,2050.99,1662.94,1882.75,2043.09,350.61,334.12,22.49,0000 0000 0000 0000 000000
2014-02-24 01:22:16,0.27,7.01,0.00,17.85,23.47,26.54,6.38,32.21,1027.85,2050.99,1662.46,1882.31,2042.93,350.36,334.07,22.50,0000 0000 0000 0000 000000
2014-02-24 01:23:16,0.47,7.01,0.00,17.85,23.47,26.57,6.25,32.13,1027.85,2050.98,1662.16,1882.11,2042.49,350.60,333.52,22.50,0000 0000 0000 0000 000000
2014-02-24 01:24:16,0.33,7.01,0.00,17.87,23.47,26.54,6.32,32.17,1027.86,2050.98,1662.02,1881.97,2042.17,350.63,334.02,22.51,0000 0000 0000 0000 000000
2014-02-24 01:25:17,0.24,7.01,0.00,17.86,23.47,26.53,6.50,32.21,1027.85,2050.99,1661.56,1881.61,2041.98,350.67,334.19,22.52,0000 0000 0000 0000 000000
2014-02-24 01:26:17,0.45,7.02,0.00,17.87,23.47,26.55,6.48,32.29,1027.85,2050.97,1661.21,1881.24,2041.48,350.87,334.15,22.52,0000 0000 0000 0000 000000
2014-02-24 01:27:17,0.45,7.02,0.00,17.87,23.47,26.50,5.96,32.04,1027.85,2050.99,1661.02,1881.08,2041.17,349.17,332.73,22.53,0000 0000 0000 0000 000000
2014-02-24 01:28:17,0.27,7.02,0.00,17.87,23.47,26.50,6.13,32.04,1027.85,2050.97,1660.53,1880.83,2040.97,350.09,333.41,22.53,0000 0000 0000 0000 000000
2014-02-24 01:29:17,0.39,7.02,0.00,17.87,23.47,26.49,6.21,32.13,1027.85,2050.98,1660.19,1880.37,2040.46,349.80,333.13,22.54,0000 0000 0000 0000 000000
2014-02-24 01:30:18,0.52,7.03,0.00,17.87,23.48,26.53,6.28,32.13,1027.85,2050.96,1659.95,1880.13,2040.17,350.38,333.68,22.55,0000 0000 0000 0000 000000
2014-02-24 01:31:18,0.28,7.03,0.00,17.87,23.48,26.53,6.37,32.29,1027.85,2050.97,1659.42,1879.98,2040.06,349.96,333.28,22.55,0000 0000 0000 0000 000000
2014-02-24 01:32:18,0.38,7.03,0.00,17.89,23.49,26.51,6.18,32.08,1027.85,2050.97,1659.15,1879.53,2039.73,350.04,332.99,22.56,0000 0000 0000 0000 000000
2014-02-24 01:33:18,0.44,7.03,0.00,17.89,23.49,26.54,6.16,32.04,1027.85,2050.96,1658.81,1879.22,2039.30,349.97,333.55,22.56,0000 0000 0000 0000 000000
2014-02-24 01:34:18,0.40,7.04,0.00,17.89,23.49,26.52,6.32,32.13,1027.86,2050.98,1658.33,1879.07,2039.10,350.51,333.46,22.57,0000 0000 0000 0000 000000
2014-02-24 01:35:19,0.34,7.04,0.00,17.90,23.49,26.54,6.15,32.17,1027.85,2050.98,1658.11,1878.87,2038.90,349.39,332.56,22.58,0000 0000 0000 0000 000000
2014-02-24 01:36:19,0.25,7.04,0.00,17.91,23.49,26.50,6.01,32.00,1027.85,2050.99,1657.72,1878.41,2038.41,349.58,332.88,22.58,0000 0000 0000 0000 000000
2014-02-24 01:37:19,0.55,7.04,0.00,17.92,23.50,26.54,6.24,32.08,1027.85,2050.97,1657.27,1878.15,2038.14,350.28,333.03,22.59,0000 0000 0000 0000 000000
2014-02-24 01:38:20,0.38,7.04,0.00,17.92,23.50,26.53,6.36,32.00,1027.85,2050.97,1657.07,1878.01,2037.98,350.62,333.50,22.59,0000 0000 0000 0000 000000
2014-02-24 01:39:20,0.24,7.05,0.00,17.92,23.50,26.55,6.17,31.88,1027.85,2050.95,1656.59,1877.56,2037.51,349.69,332.84,22.60,0000 0000 0000 0000 000000
2014-02-24 01:40:20,0.54,7.05,0.00,17.92,23.50,26.53,6.31,31.92,1027.85,2050.95,1656.22,1877.20,2037.19,350.27,333.14,22.60,0000 0000 0000 0000 000000
2014-02-24 01:41:20,0.42,7.05,0.00,17.92,23.49,26.55,6.33,32.04,1027.85,2050.95,1656.06,1877.07,2037.04,350.63,333.66,22.61,0000 0000 0000 0000 000000
2014-02-24 01:42:21,0.21,7.05,0.00,17.92,23.50,26.52,6.08,31.79,1027.85,2050.94,1655.58,1876.90,2036.63,348.99,332.30,22.62,0000 0000 0000 0000 000000
2014-02-24 01:43:21,0.37,7.06,0.00,17.92,23.50,26.56,6.34,31.88,1027.85,2050.95,1655.21,1876.44,2036.23,350.65,334.06,22.62,0000 0000 0000 0000 000000
2014-02-24 01:44:21,0.51,7.06,0.00,17.93,23.50,26.55,6.43,32.00,1027.85,2050.95,1655.03,1876.17,2036.07,350.16,333.95,22.63,0000 0000 0000 0000 000000
2014-02-24 01:45:21,0.27,7.06,0.00,17.94,23.50,26.55,6.35,32.04,1027.85,2050.91,1654.62,1876.06,2035.87,350.45,333.51,22.63,0000 0000 0000 0000 000000
2014-02-24 01:46:22,0.25,7.06,0.00,17.94,23.50,26.52,6.31,31.88,1027.85,2050.91,1654.23,1875.83,2035.39,350.13,333.37,22.64,0000 0000 0000 0000 000000
2014-02-24 01:47:22,0.40,7.06,0.00,17.94,23.50,26.54,6.13,31.88,1027.85,2050.95,1654.07,1875.35,2035.14,349.94,333.17,22.65,0000 0000 0000 0000 000000
2014-02-24 01:48:22,0.43,7.07,0.00,17.95,23.50,26.51,6.37,31.92,1027.85,2050.96,1653.81,1875.13,2035.02,350.87,334.06,22.65,0000 0000 0000 0000 000000
2014-02-24 01:49:22,0.27,7.07,0.00,17.97,23.50,26.50,6.33,31.83,1027.85,2050.96,1653.36,1875.03,2034.56,350.22,333.42,22.66,0000 0000 0000 0000 000000
2014-02-24 01:50:22,0.40,7.07,0.00,17.97,23.50,26.52,6.25,31.96,1027.85,2050.98,1653.13,1874.84,2034.20,349.56,332.78,22.66,0000 0000 0000 0000 000000
2014-02-24 01:51:23,0.29,7.07,0.00,17.97,23.50,26.54,6.11,32.00,1027.85,2050.98,1652.95,1874.36,2034.06,349.65,332.88,22.67,0000 0000 0000 0000 000000
2014-02-24 01:52:23,0.36,7.07,0.00,17.97,23.51,26.52,6.22,31.96,1027.85,2050.96,1652.45,1874.13,2033.73,349.91,332.91,22.67,0000 0000 0000 0000 000000
2014-02-24 01:53:23,0.40,7.08,0.00,17.97,23.51,26.53,6.32,31.96,1027.85,2050.95,1652.17,1874.03,2033.30,349.98,333.38,22.68,0000 0000 0000 0000 000000
2014-02-24 01:54:23,0.31,7.08,0.00,17.97,23.52,26.56,6.14,32.00,1027.85,2050.94,1651.94,1873.68,2033.11,349.07,332.31,22.69,0000 0000 0000 0000 000000
2014-02-24 01:55:24,0.32,7.08,0.00,17.97,23.52,26.54,6.31,31.88,1027.85,2050.93,1651.43,1873.28,2032.89,351.22,334.36,22.69,0000 0000 0000 0000 000000
2014-02-24 01:56:24,0.46,7.08,0.00,17.99,23.52,26.53,6.13,31.96,1027.85,2050.91,1651.15,1873.10,2032.41,349.48,332.69,22.70,0000 0000 0000 0000 000000
2014-02-24 01:57:24,0.32,7.09,0.00,17.99,23.52,26.55,6.29,32.13,1027.85,2050.81,1650.79,1872.92,2032.15,350.12,333.30,22.70,0000 0000 0000 0000 000000
2014-02-24 01:58:25,0.19,7.09,0.00,17.99,23.52,26.53,6.38,32.13,1027.85,2050.87,1650.32,1872.46,2032.03,350.43,333.59,22.71,0000 0000 0000 0000 000000
2014-02-24 01:59:25,0.53,7.09,0.00,17.99,23.52,26.53,6.18,32.00,1027.84,2050.86,1650.11,1872.17,2031.68,349.56,332.87,22.72,0000 0000 0000 0000 000000
2014-02-24 02:00:25,0.34,7.09,0.00,17.99,23.52,26.54,6.15,31.79,1027.85,2050.80,1649.74,1872.03,2031.25,349.89,333.07,22.72,0000 0000 0000 0000 000000
2014-02-24 02:01:26,0.26,7.09,0.00,17.99,23.52,26.58,6.33,31.88,1027.84,2050.67,1649.29,1871.79,2031.08,350.97,333.76,22.73,0000 0000 0000 0000 000000
2014-02-24 02:02:26,0.28,7.09,0.00,17.99,23.52,26.55,6.20,31.88,1027.84,2050.65,1649.09,1871.34,2030.66,349.63,332.82,22.73,0000 0000 0000 0000 000000
2014-02-24 02:03:26,0.35,7.10,0.00,18.00,23.52,26.52,6.15,31.83,1027.85,2050.53,1648.80,1871.12,2030.25,350.23,333.40,22.74,0000 0000 0000 0000 000000
2014-02-24 02:04:26,0.31,7.10,0.00,18.00,23.52,26.52,6.07,31.83,1027.85,2050.69,1648.31,1871.02,2030.09,349.08,332.30,22.75,0000 0000 0000 0000 000000
2014-02-24 02:05:27,0.43,7.10,0.00,18.02,23.52,26.52,6.28,31.96,1027.85,2050.71,1648.11,1870.69,2029.95,350.60,333.73,22.75,0000 0000 0000 0000 000000
2014-02-24 02:06:27,0.36,7.10,0.00,18.02,23.52,26.54,6.19,31.96,1027.85,2050.80,1647.98,1870.28,2029.49,349.87,333.18,22.76,0000 0000 0000 0000 000000
2014-02-24 02:07:27,0.47,7.11,0.00,18.02,23.53,26.54,6.22,31.88,1027.85,2050.83,1647.50,1870.10,2029.18,350.33,333.09,22.76,0000 0000 0000 0000 000000
2014-02-24 02:08:28,0.38,7.11,0.00,18.04,23.53,26.57,6.21,32.08,1027.85,2050.83,1647.17,1869.99,2029.03,349.29,332.46,22.77,0000 0000 0000 0000 000000
2014-02-24 02:09:28,0.28,7.11,0.00,18.04,23.53,26.56,6.23,31.96,1027.85,2050.71,1646.94,1869.53,2028.57,349.48,332.61,22.77,0000 0000 0000 0000 000000
2014-02-24 02:10:28,0.36,7.11,0.00,18.04,23.54,26.54,6.25,31.92,1027.85,2050.72,1646.43,1869.21,2028.22,350.26,333.09,22.78,0000 0000 0000 0000 000000
2014-02-24 02:11:29,0.41,7.11,0.00,18.04,23.54,26.55,6.34,31.83,1027.85,2050.54,1646.15,1869.06,2028.07,350.44,333.80,22.79,0000 0000 0000 0000 000000
2014-02-24 02:12:29,0.10,7.12,0.00,18.04,23.54,26.56,6.13,31.79,1027.85,2050.57,1645.98,1868.87,2027.82,350.51,333.60,22.79,0000 0000 0000 0000 000000
2014-02-24 02:13:29,0.36,7.12,0.00,18.06,23.54,26.55,6.17,31.75,1027.85,2050.56,1645.45,1868.40,2027.33,349.47,332.61,22.80,0000 0000 0000 0000 000000
2014-02-24 02:14:29,0.47,7.12,0.00,18.07,23.55,26.54,6.13,31.92,1027.85,2050.36,1645.14,1868.14,2027.11,349.60,332.71,22.80,0000 0000 0000 0000 000000
2014-02-24 02:15:29,0.17,7.12,0.00,18.07,23.55,26.54,6.31,31.88,1027.85,2050.27,1644.67,1867.99,2026.90,350.28,333.36,22.81,0000 0000 0000 0000 000000
2014-02-24 02:16:30,0.29,7.12,0.00,18.07,23.55,26.59,6.21,31.92,1027.85,2050.21,1644.26,1867.52,2026.42,349.51,332.81,22.82,0000 0000 0000 0000 000000
2014-02-24 02:17:30,0.44,7.13,0.00,18.07,23.55,26.59,6.08,31.83,1027.85,2050.15,1644.08,1867.19,2026.16,349.50,332.96,22.82,0000 0000 0000 0000 000000
2014-02-24 02:18:30,0.27,7.13,0.00,18.07,23.55,26.59,6.22,31.96,1027.85,2050.14,1643.69,1867.06,2026.05,349.44,332.56,22.83,0000 0000 0000 0000 000000
2014-02-24 02:19:31,0.25,7.13,0.00,18.09,23.55,26.54,6.24,31.79,1027.85,2050.18,1643.25,1866.94,2025.73,349.96,333.04,22.83,0000 0000 0000 0000 000000
2014-02-24 02:20:31,0.43,7.13,0.00,18.09,23.55,26.52,6.30,31.75,1027.86,2050.18,1643.05,1866.47,2025.31,350.61,333.27,22.84,0000 0000 0000 0000 000000
2014-02-24 02:21:31,0.45,7.13,0.00,18.09,23.55,26.56,6.26,31.71,1027.86,2050.16,1642.55,1866.16,2025.11,349.18,332.67,22.84,0000 0000 0000 0000 000000
2014-02-24 02:22:32,0.40,7.14,0.00,18.09,23.55,26.57,6.32,32.00,1027.85,2050.13,1642.19,1866.03,2024.83,350.74,333.77,22.85,0000 0000 0000 0000 000000
2014-02-24 02:23:32,0.29,7.14,0.00,18.11,23.55,26.58,6.26,31.83,1027.88,2050.11,1641.94,1865.67,2024.38,350.81,333.83,22.86,0000 0000 0000 0000 000000
2014-02-24 02:24:32,0.38,7.14,0.00,18.12,23.55,26.57,6.16,31.63,1027.87,2050.07,1641.44,1865.25,2024.13,350.71,333.95,22.86,0000 0000 0000 0000 000000
2014-02-24 02:25:33,0.45,7.14,0.00,18.12,23.56,26.57,6.13,31.83,1027.86,2050.13,1641.16,1865.09,2024.00,349.72,332.87,22.87,0000 0000 0000 0000 000000
2014-02-24 02:26:33,0.31,7.14,0.00,18.12,23.57,26.56,6.35,31.88,1027.86,2050.12,1640.99,1864.97,2023.52,350.67,333.55,22.87,0000 0000 0000 0000 000000
2014-02-24 02:27:33,0.32,7.15,0.00,18.12,23.57,26.58,5.98,31.79,1027.88,2050.06,1640.46,1864.49,2023.20,349.25,332.33,22.88,0000 0000 0000 0000 000000
2014-02-24 02:28:33,0.47,7.15,0.00,18.12,23.57,26.60,6.15,32.00,1027.87,2050.05,1640.16,1864.17,2023.06,349.43,332.47,22.89,0000 0000 0000 0000 000000
2014-02-24 02:29:34,0.34,7.15,0.00,18.12,23.57,26.56,6.24,32.00,1027.86,2050.04,1639.93,1864.05,2022.67,350.30,333.32,22.89,0000 0000 0000 0000 000000
2014-02-24 02:30:34,0.27,7.15,0.00,18.13,23.57,26.58,6.18,32.04,1027.86,2050.04,1639.41,1863.76,2022.26,350.13,333.15,22.90,0000 0000 0000 0000 000000
2014-02-24 02:31:34,0.48,7.15,0.00,18.14,23.57,26.59,6.05,32.17,1027.86,2050.06,1639.15,1863.31,2022.09,348.77,332.07,22.90,0000 0000 0000 0000 000000
2014-02-24 02:32:34,0.41,7.16,0.00,18.14,23.57,26.58,6.13,31.88,1027.86,2050.05,1638.82,1863.11,2021.89,349.47,332.51,22.91,0000 0000 0000 0000 000000
2014-02-24 02:33:35,0.32,7.16,0.00,18.14,23.57,26.56,6.24,31.75,1027.87,2050.06,1638.34,1863.01,2021.39,350.46,333.46,22.92,0000 0000 0000 0000 000000
2014-02-24 02:34:35,0.37,7.16,0.00,18.14,23.57,26.57,6.30,32.00,1027.89,2050.06,1638.12,1862.76,2021.14,349.75,332.79,22.92,0000 0000 0000 0000 000000
2014-02-24 02:35:35,0.31,7.16,0.00,18.15,23.57,26.59,6.35,31.96,1027.91,2050.09,1637.99,1862.31,2021.00,349.73,332.61,22.93,0000 0000 0000 0000 000000
2014-02-24 02:36:36,0.37,7.17,0.00,18.14,23.58,26.60,6.20,31.75,1027.92,2050.12,1637.53,1862.10,2020.56,349.45,332.51,22.93,0000 0000 0000 0000 000000